Regional Weather Roundup
Issued by NWS Grand Forks, ND

Home | Current Version | Previous Version | Graphics & Text | Print | Product List | Glossary On
Versions: 1 2 3 4 5 6 7 8 9 10 11 12 13 14 15 16 17 18 19 20 21 22 23 24 25 26 27 28 29 30 31 32 33 34 35 36 37 38 39 40 41 42 43 44 45 46 47 48 49 50
000
ASUS43 KFGF 230231
RWRFGF
PRAIRIE TO PINES  WEATHER ROUNDUP
NATIONAL WEATHER SERVICE EASTERN NORTH DAKOTA/GRAND FORKS ND
900 PM CDT TUE JUL 22 2014

 **SATELLITE DATA USED TO AUGMENT SKY COVER AT AUTOMATED STATIONS**
 *****  WEATHER ACROSS EASTERN NORTH DAKOTA  *****

CITY           SKY/WX    TMP DP  RH WIND       PRES   REMARKS
GRAND FORKS    PTCLDY    68  61  78 N7        30.20R
GRAND FRKS AFB CLEAR     68  61  78 N6        30.21S
GRAND FRKS NWS   N/A     68 N/A N/A VRB5        N/A
DEVILS LAKE    CLEAR     70  59  68 E7        30.21R
FARGO          CLEAR     71  58  63 N7        30.20R
WAHPETON ARPT  PTCLDY    68  55  64 N6        30.21R
$$

 ***** WEATHER ACROSS CENTRAL AND WESTERN NORTH DAKOTA  *****

CITY           SKY/WX    TMP DP  RH WIND       PRES   REMARKS
BISMARCK       CLOUDY    73  65  75 E6        30.24R
MINOT          CLOUDY    72  64  76 E5        30.22R
JAMESTOWN      PTCLDY    70  62  76 E5        30.23R
MINOT AFB      PTCLDY    72  64  76 E6        30.22R
GARRISON         N/A     73  65  75 E6        30.22R
WILLISTON      CLOUDY    79  62  56 E12       30.19R
DICKINSON      CLOUDY    69  59  70 SE5       30.18F
HETTINGER      CLOUDY    68  60  75 E13       30.24S
$$

 *****  OTHER AIRPORT OBSERVATIONS IN OUR AREA  *****

CITY           SKY/WX    TMP DP  RH WIND       PRES   REMARKS
WALHALLA       FAIR      68  59  73 N5          N/A
GRAFTON AIRPOR FAIR      68  59  73 NW3       30.21R
VALLEY CITY AR FAIR      66  64  94 CALM      30.24R
CANDO          FAIR      66  61  82 E6        30.24R
CAVALIER APRT  FAIR      70  59  68 CALM      30.21R
GWINNER        CLEAR     70  63  78 NE3       30.24R
SHEYENNE NWR     N/A     71  59  64 NE2       29.95S
ROLLA          FAIR      64  64 100 E5        30.25S
 ***** THE ABOVE OBSERVATIONS ARE NON NWS ARE NOT QUALITY
       CONTROLLED AND MAY MIS-REPORT RAIN FOR SNOW...
$$

  *****  WEATHER ACROSS NORTHERN MINNESOTA  *****

CITY           SKY/WX    TMP DP  RH WIND       PRES   REMARKS
FLAG ISLAND    CLEAR     70  54  56 NW13      30.18R
WARROAD        CLEAR     66  57  72 NW3       30.20R
ROSEAU         CLEAR     66  57  72 N5        30.20R
HALLOCK        CLEAR     68  57  68 N7        30.19S
THF RVR FALLS  CLEAR     66  57  72 NW6       30.20S
BAUDETTE       CLEAR     67  58  72 N8        30.19R
WASKISH        CLEAR     68  55  64 N3        30.18R
CROOKSTON      CLEAR     66  61  82 N3        30.21R
$$
  *****  WEATHER ACROSS CENTRAL AND WEST MINNESOTA  *****

CITY           SKY/WX    TMP DP  RH WIND       PRES   REMARKS
FOSSTON        CLEAR     61  55  82 NW5       30.21S
BEMIDJI        PTCLDY    64  54  70 NW5       30.19S
PARK RAPIDS    CLEAR     65  55  70 NW6       30.19S
ELBOW LAKE     FAIR      67  57  69 N7        30.20R
WADENA         CLEAR     63  55  77 N5        30.20R
DETROIT LAKES  CLEAR     68  55  64 N6        30.23R
MOORHEAD       CLEAR     68  64  88 NE3       30.21R
FERGUS FALLS   CLEAR     64  54  68 N6        30.21R
MORRIS MN      CLEAR     64  57  77 N7        30.19R
STAPLES        CLEAR     64  54  68 N3        30.19R
$$
  *****  WEATHER ELSEWHERE ACROSS MINNESOTA  *****

CITY           SKY/WX    TMP DP  RH WIND       PRES   REMARKS
DULUTH         PTCLDY    68  55  63 N5        30.14R
INTRNTL FALLS  CLEAR     64  56  75 W3        30.14R
ELY            CLEAR     61  55  82 CALM      30.14R
CLOQUET        PTCLDY    66  54  63 NW3       30.15R
WHEATON        CLEAR     66  57  72 CALM      30.23R
BRAINERD       CLEAR     68  53  58 N6        30.17R
HIBBING        CLEAR     61  55  81 NW3       30.16R
ALEXANDRIA     CLEAR     70  57  63 N6        30.20R
SAINT CLOUD    CLEAR     73  55  53 N6        30.15R
MINNEAPOLIS    PTCLDY    77  53  43 N10       30.11R
$$

  *****  WEATHER ACROSS SOUTH DAKOTA  *****

CITY           SKY/WX    TMP DP  RH WIND       PRES   REMARKS
SIOUX FALLS    PTCLDY    70  60  70 NE8       30.19R
BROOKINGS      NOT AVBL
WATERTOWN      CLEAR     68  57  68 NE6       30.23R
HURON          CLEAR     73  61  65 NE6       30.19R
SISSETON         N/A     68  62  81 NE6       30.20R
ABERDEEN       CLEAR     71  61  70 E6        30.21R
MITCHELL       CLEAR     73  63  70 NE3       30.19R
PIERRE         CLOUDY    77  61  57 E7        30.19R
MOBRIDGE       MOCLDY    75  62  64 E7        30.21R
RAPID CITY     CLOUDY    72  63  73 SE12      30.18F
$$

  *****  SOME WEATHER IN NEARBY STATES *****

CITY           SKY/WX    TMP DP  RH WIND       PRES   REMARKS
GLASGOW MT     CLEAR     80  51  36 NE13      30.17S
GREAT FALLS MT FAIR      76  54  46 NE12      30.14S
CHEYENNE WY    PTCLDY    79  52  38 S9        30.36F
SCOTTSBLUFF NE PTCLDY    85  58  39 SE12      30.19S
OMAHA NE       MOCLDY    79  69  71 N7        30.11R
DES MOINES IA  PTCLDY    82  68  62 N13       30.06R
DAVENPORT IA   PTCLDY    81  77  88 W8        29.99R FOG
CHICAGO IL     MOCLDY    85  73  67 SW8       29.95R HX  91
EAU CLAIRE WI  CLEAR     72  63  73 NW5       30.08R
LA CROSSE WI   CLEAR     78  63  59 N10       30.04R
$$

  *****  SOME NATIONAL WEATHER *****

CITY           SKY/WX    TMP DP  RH WIND       PRES   REMARKS
LA GUARDIA NY  PTCLDY    80  65  59 S13       30.05F
RALEIGH NC     PTCLDY    75  71  87 CALM      30.11R
ATLANTA GA     PTCLDY    78  70  76 CALM      30.12R
NEW ORLEANS LA MOCLDY    80  74  81 E3        30.01R
OKLAHOMA CITY  PTCLDY    86  73  65 SE8       30.08R HX  93
ALBUQUERQUE NM MOCLDY    85  44  23 E16       30.31R
SALT LAKE CITY FAIR      95  32  11 N10       30.06F HX  90
LOS ANGELES CA FAIR      73  58  59 W13       29.99S
BOISE ID       FAIR      89  42  19 NW10      29.99F
SEATTLE WA     PTSUNNY   69  56  62 W5        30.04F
$$

*** WEATHER ACROSS MANITOBA...SASKATCHEWAN AND ONTARIO ***
                ***ONTARIO***

CITY           SKY/WX    TMP DP  RH WIND       PRES   REMARKS
GERALDTON      MOCLDY    54  52  94 N3        30.08R
THUNDER BAY    PTCLDY    66  57  72 N5        30.09R
SIOUX LOOKOUT  MOCLDY    61  54  77 N6        30.17R
TORONTO        PTCLDY    81  66  61 SW13      29.93R
BIG TROUT LK   CLOUDY    61  45  55 N8        30.13R
PICKLE LAKE    MOCLDY    61  46  59 N7        30.14R
DRYDEN         CLEAR     63  52  67 N7        30.17R
KENORA         PTCLDY    66  54  63 N6        30.20R
$$
                *** MANITOBA***

CITY           SKY/WX    TMP DP  RH WIND       PRES   REMARKS
BRANDON        PTCLDY    66  57  72 NE10      30.24R
DAUPHIN        CLEAR     66  54  63 NE6       30.26R
ISLAND LAKE    PTCLDY    63  46  55 NW3       30.21R
PILOT MOUND      N/A     68  57  68 NE9         N/A
THE PAS        CLEAR     68  55  64 CALM      30.22S
THOMPSON       PTCLDY    66  50  55 N2        30.19S
WINNIPEG       PTCLDY    66  57  72 NE9       30.22R
LYNN LAKE      CLEAR     70  45  40 W6        30.21S
CHURCHILL      PTCLDY    61  50  67 SE7       30.07R
GILLAM         PTCLDY    68  50  52 W5        30.13S
$$
                ***SASKATCHEWAN***

CITY           SKY/WX    TMP DP  RH WIND       PRES   REMARKS
ESTEVAN        MOCLDY    72  59  64 E6        30.23S
KINDERSLEY     PTSUNNY   68  59  73 SE7       30.19F
LLOYDMINSTER   PTSUNNY   70  55  60 SE8G17    30.19F
PRINCE ALBERT  PTCLDY    70  57  64 SE3       30.23S
REGINA         CLOUDY    72  54  53 E8        30.24S
YORKTON        CLEAR     68  54  60 NE5       30.26R
N. BATTLEFORD  MOSUNNY   70  61  73 E7        30.22F
LA RONGE       PTCLDY    72  54  53 SE6       30.21S
SASKATOON      MOCLDY    72  55  56 E9        30.24R
SWIFT CURRENT  PTCLDY    70  59  68 SE7       30.21S
$$
NOTE: THESE ARE AUTOMATED STATIONS WITH LIMITED QUALITY CONTROL
      "FAIR" INDICATES FEW OR NO CLOUDS BELOW 12,000 FEET WITH NO
      SIGNIFICANT WEATHER AND/OR OBSTRUCTIONS TO VISIBILITY.
      SKY/WX - SKY CONDITION AND SIGNIFICANT WEATHER.
      TMP - AIR TEMPERATURE.    DP   - DEWPOINT TEMPERATURE.
      RH  - RELATIVE HUMIDITY.  PRES - PRESSURE.
      HX  - HEAT INDEX.         WCI  - WIND CHILL INDEX.
$



USA.gov is the U.S. government's official web portal to all federal, state and local government web resources and services.